Starlink 11246

operational
NORAD ID: 60932 Int'l Des: 2024-155 Owner: SPXS Country: US Constellation: starlink
LEOCIRCULAR

About Starlink 11246

Description loading...

Live Position

Loading 3D Globe...

Upcoming Passes

Altitude History

Altitude vs Time

uPlot chart will show altitude changes over time

Two-Line Element Set

1 60932U 24155J 25352.37407170 -.00000657 00000-0 -55722-6 0 9990
2 60932 53.1594 21.9040 0001407 82.5260 277.5918 15.69704058 75635
Epoch: Dec 18, 2025 • Age: 16 hours

Current Status

Altitude 365.2 km
Velocity 7.70 km/s
Sub-Earth Point 52.44°N, 2.6°W
Launch Date Aug 31, 2024
Age 1.2 years
Type internet

Technical Details

Classification Payload
Mass 960.00 kg
Dry Mass 910.00 kg
Total Mass 960.00 kg
Length 0.30 m
Diameter 4.10 m
Span 29.00 m
Shape Box + pan
Manufacturer SPXS
Bus Type Starlink V2MD
Phase Status In Orbit
Owner/State SPXS/US

Large Constellations

Loading constellations...